Content
SEND FEEDBACK

Daily
Averages
Monthly
Summary
Canada

QUEBEC CITY, QUEBEC


Home > North America > Canada > Quebec
Elevation: 239 feet     Latitude: 46 48N     Longitude: 071 23W

WEATHER
 
SELECT A DAY
Number of Records: 191,770;   Date Range: 6/30/96 - 7/9/14
 
SHARE

PRINT THIS DATA

[ ← Previous Day ]
WEATHER ALMANAC - APRIL 27, 2013
[ Next Day → ]
[ °C ]   °F
Weather ElementAverageHighLow
Temperature45.5 °F58 °F (5:00 pm)30 °F (2:00 am)
Dewpoint29 °F34 °F (11:00 am) (7:00 pm)
Humidity54.8 %88 % (5:00 am)23 % (5:00 pm)
Barometer29.45 in30.48 in (1:00 am) (7:00 pm)
Wind Speed4.9 mph13.8 mph (2:00 pm)
Wind Gust21.9 mph (2:00 pm)
Weather ElementAverage
Visibility23.8 mi
Wind DirectionSSE (166.6 °)

Weather ElementTotal
Precipitation---
Heating Degree Days21 (Base 65)
Averaged from 32 records on April 27, 2013
WEATHER CONDITIONS BREAKOUT
WIND DIRECTION BREAKOUT
WEATHER BY HOUR - APRIL 27, 2013
[ °C ]   °F
Local TimeTemperatureDewpointHumidityBarometerVisibilityWind DirectionWind SpeedGust SpeedPrecipitationEventsConditions
1:00 AM37.4 °F26.6 °F65 %30.48 in15.0 miNNW (340°)3.5 mphClear
2:00 AM30.0 °F27.0 °F85 %30.47 inWNW (290°)2.3 mph
2:00 AM35.6 °F26.6 °F70 %30.47 in15.0 miNorth (350°)3.5 mphClear
3:00 AM35.6 °F26.6 °F70 %30.46 in15.0 miNNE (30°)3.5 mphPartly Cloudy
4:00 AM32.0 °F26.6 °F80 %30.47 in15.0 miCalmPartly Cloudy
5:00 AM30.0 °F28.0 °F88 %30.43 inWest (270°)2.3 mph
5:00 AM32.0 °F26.6 °F80 %30.46 in15.0 miCalmMostly Cloudy
5:42 AM35.6 °F0.0 °F25.0 miCalmMostly Cloudy
6:00 AM33.8 °F26.6 °F75 %30.46 in25.0 miCalmMostly Cloudy
7:00 AM35.6 °F28.4 °F75 %30.47 in25.0 miCalmMostly Cloudy
8:00 AM39.0 °F33.0 °F73 %30.44 inENE (60°)3.5 mph
8:00 AM39.2 °F30.2 °F70 %30.48 in30.0 miENE (60°)3.5 mphPartly Cloudy
9:00 AM42.8 °F32.0 °F66 %30.48 in30.0 miCalmPartly Cloudy
10:00 AM44.6 °F32.0 °F61 %30.47 in30.0 miCalmPartly Cloudy
11:00 AM51.0 °F34.0 °F40 %30.41 inSSW (200°)4.6 mph
11:00 AM50.0 °F32.0 °F50 %30.45 in30.0 miSW (220°)4.6 mphScattered Clouds
12:00 PM53.6 °F32.0 °F44 %30.43 in30.0 miSW (230°)6.9 mphMostly Cloudy
1:00 PM55.4 °F32.0 °F41 %30.40 in30.0 miSW (220°)11.5 mph17.3 mphPartly Cloudy
2:00 PM56.0 °F30.0 °F25 %30.35 inSSW (210°)10.4 mph
2:00 PM57.2 °F30.2 °F36 %30.38 in30.0 miSW (220°)13.8 mph21.9 mphPartly Cloudy
3:00 PM57.2 °F32.0 °F38 %30.36 in30.0 miSSW (210°)13.8 mphPartly Cloudy
4:00 PM57.2 °F32.0 °F38 %30.34 in30.0 miSSW (210°)10.4 mphPartly Cloudy
5:00 PM58.0 °F30.0 °F23 %30.29 inSSW (210°)8.1 mph
5:00 PM57.2 °F30.2 °F36 %30.33 in30.0 miSW (220°)12.7 mphPartly Cloudy
6:00 PM57.2 °F30.2 °F36 %30.32 in30.0 miSW (220°)9.2 mphPartly Cloudy
7:00 PM55.4 °F28.4 °F36 %30.32 in30.0 miSW (220°)8.1 mphPartly Cloudy
8:00 PM53.0 °F29.0 °F28 %30.28 inSW (220°)3.5 mph
8:00 PM53.6 °F28.4 °F38 %30.32 in15.0 miSW (220°)4.6 mphClear
9:00 PM48.2 °F32.0 °F54 %30.32 in15.0 miWest (270°)3.5 mphClear
10:00 PM44.6 °F32.0 °F61 %30.33 in15.0 miWest (280°)3.5 mphClear
11:00 PM41.0 °F33.0 °F64 %30.32 inNNW (340°)2.3 mph
11:00 PM46.4 °F30.2 °F53 %30.33 in15.0 miNorth (10°)3.5 mphClear
Hourly data recorded from CYQB, located miles away from Quebec City, Quebec







STORIES FROM OUR PARTNERS